www.pogodaiklimat.ru

Погода и климат >> Архив погоды >> Молдова >> Кишинев


АРХИВ ПОГОДЫ в Кишиневе

Время (UTC), дата Ветер
(напр.,м/с)
 
Видим.   Явления Облачность Т
(С)
Тd
(С)
f
(%)
Тe
(С)
Тes
(С)
Комфортность P
(гПа)
Po
(гПа)
Тmin
(С)
Tmax
(С)
R
(мм)
R24
(мм)
S
(см)
09 18.06 штиль 0 20 км {ливн. осадки} 10/10 600 м
[Cb calv]
+18.4 +13.5 73 +19 +19 прохладно 1011.6 991.8
12 18.06 штиль 0 20 км в посл. час ливневой дождь 10/8 600 м
[Cb calv Ac trans]
+19.8 +14.6 72 +22 +23 комфорт 1011.9 992.2
15 18.06 З 1 20 км 10/4 600 м
[Cu med, cong Ac As]
+20.2 +13.9 67 +24 +25 комфорт 1012.6 992.9
18 18.06 С 1 20 км 9/4 600 м
[Cu Sc Ac trans Ci fib]
+20.5 +10.9 54 +23 +23 комфорт 1013.8 994.1 +22.0 4
21 18.06 СВ 2 20 км 6/0
[Ac trans Ci fib]
+17.7 +11.7 68 +18 +18 по сезону 1015.1 995.2
00 19.06 С 3 20 км 3/0
[Ci fib]
+16.5 +11.9 74 +16 +16 по сезону 1015.5 995.5
03 19.06 С 4 20 км 3/0
[Ac trans]
+16.5 +12.1 75 +16 +16 по сезону 1015.7 995.7
06 19.06 С 3 20 км 1/0
[Ci fib]
+20.5 +13.5 64 +23 +30 комфорт 1015.7 996.0 +16.0
09 19.06 С 3 20 км 8/6 600 м
[Cu hum Ac trans]
+25.4 +7.5 32 +25 +30 комфорт 1015.3 995.9
12 19.06 С 4 20 км 9/5 600 м
[Cu hum Ci fib]
+26.4 +5.4 26 +26 +30 жарко 1014.5 995.1
15 19.06 С 2 20 км 8/5 600 м
[Cu med, cong Ac trans]
+25.3 +6.5 30 +25 +27 комфорт 1013.9 994.5
18 19.06 СЗ 2 20 км 5/3 600 м
[Sc Ac trans Ci fib]
+23.1 +8.8 40 +24 +24 комфорт 1014.1 994.5 +27.2
21 19.06 С 3 20 км 3/0
[Ac trans Ci fib]
+20.6 +11.0 54 +23 +23 комфорт 1014.9 995.2
00 20.06 С 3 20 км ясно +19.5 +12.5 64 +21 +21 комфорт 1014.6 994.8
03 20.06 СЗ 5 20 км 1/0
[Ac trans]
+18.8 +13.7 72 +19 +20 по сезону 1014.0 994.2
06 20.06 С 3 20 км ясно +22.7 +15.3 63 +27 +33 душно 1014.2 994.7 +18.7
09 20.06 СЗ 5 20 км 8/8 600 м
[Cu med, cong]
+26.3 +14.4 48 +29 +31 жарко 1013.7 994.4
12 20.06 СЗ 5 20 км 5/5 600 м
[Cu med, cong]
+28.7 +13.0 38 +30 +34 жарко 1012.6 993.5
15 20.06 С 4 20 км в посл. час ливневой дождь 8/6 600 м
[Cb calv Ci fib]
+25.4 +14.2 50 +28 +29 жарко 1011.5 992.2
18 20.06 З 2 20 км {ливн. осадки} 5/0
[Ac trans Ci fib]
+23.7 +14.4 56 +26 +26 жарко 1011.4 992.0 +29.5 0.1
21 20.06 З 1 20 км 3/0
[Ci fib]
+21.7 +12.5 56 +24 +24 комфорт 1011.6 992.0
00 21.06 З 1 20 км ясно +21.4 +12.5 57 +24 +24 комфорт 1010.8 991.2
03 21.06 штиль 0 20 км 3/0
[Ci fib]
+20.0 +12.3 61 +22 +22 комфорт 1010.4 990.7
06 21.06 З 1 20 км 3/0
[Ci fib]
+24.2 +15.7 59 +27 +36 жарко 1010.1 990.7 +19.1
09 21.06 СЗ 4 20 км 6/1 600 м
[Cu hum Ac trans Ci fib]
+28.1 +14.0 42 +30 +38 жарко 1009.6 990.5
12 21.06 СЗ 4 20 км 9/8 600 м
[Cu med, cong Ac trans]
+29.4 +14.0 39 +31 +33 жарко 1008.5 989.5
15 21.06 СЗ 5 20 км 10/4 600 м
[Cu med, cong As trans]
+26.5 +16.2 53 +30 +30 душно 1008.7 989.5
18 21.06 СЗ 3 20 км 8/0
[As trans Ci fib]
+23.5 +13.4 53 +26 +26 жарко 1009.9 990.5 +29.9
21 21.06 СЗ 3 20 км 6/0
[Ac trans Ci fib]
+21.4 +14.6 65 +24 +24 комфорт 1012.0 992.4
00 22.06 С 3 20 км 5/0
[Ci fib]
+19.4 +11.2 59 +21 +21 комфорт 1012.4 992.6
03 22.06 СЗ 3 20 км 1/0
[Ci fib]
+17.5 +9.4 59 +18 +18 по сезону 1013.1 993.2
06 22.06 С 3 20 км 4/0
[Ac trans Ci fib]
+21.1 +9.4 47 +22 +28 комфорт 1013.9 994.2 +17.5
09 22.06 С 4 20 км 10/3 600 м
[Cu hum Ci fib]
+24.4 +7.5 34 +25 +31 комфорт 1014.1 994.6
12 22.06 СЗ 4 20 км 10/5 600 м
[Cu med, cong Cs]
+25.0 +8.5 35 +25 +30 комфорт 1013.4 994.0
15 22.06 С 1 20 км 8/0
[Ac lent Ci fib]
+25.0 +8.1 34 +25 +28 комфорт 1012.7 993.3
18 22.06 СЗ 2 20 км 10/1 600 м
[Cu med, cong Ac cast]
+22.3 +6.1 35 +23 +23 комфорт 1013.3 993.7 +26.0
21 22.06 СЗ 1 20 км 9/5 600 м
[Sc Ac trans]
+21.1 +7.0 40 +22 +22 комфорт 1013.1 993.4
00 23.06 ЮЗ 1 20 км {ливн. осадки} 3/0
[Ci fib]
+16.7 +12.0 74 +18 +18 по сезону 1013.7 993.7
03 23.06 штиль 0 20 км 8/0
[Ac trans Ci fib]
+15.3 +11.9 80 +15 +15 прохладно 1012.4 992.4
06 23.06 ЮЗ 4 20 км 4/0
[Ci fib]
+20.6 +14.0 66 +23 +28 комфорт 1011.8 992.2 +15.0 0.4
09 23.06 ЮЗ 5 20 км 5/0
[Ci fib]
+26.7 +14.1 46 +29 +37 жарко 1009.7 990.5
12 23.06 ЮЗ 7 20 км 10/0
[Ac trans Ci fib]
+29.1 +15.3 43 +32 +34 душно 1006.7 987.7
15 23.06 Ю 2
{21}
20 км в посл. час гроза {ливн. осадки} 9/6 600 м
[Cb calv Ac trans Ci fib]
+18.6 +17.8 95 +20 +21 прохладно 1006.5 986.9
18 23.06 З 2 20 км {гроза, ливн. осадки} 10/3 600 м
[Cu med, cong Ac trans Ci fib]
+19.7 +17.3 86 +23 +23 комфорт 1005.4 985.8 +29.4 13
21 23.06 СЗ 4
{12}
20 км гроза, ливневой дождь 10/8 600 м
[Cb calv Ac trans]
+18.1 +15.2 83 +18 +18 по сезону 1007.3 987.6
00 24.06 СЗ 7
{12}
20 км {гроза, ливн. осадки} 10/5 600 м
[Cb calv Ac trans]
+17.6 +13.7 78 +17 +17 по сезону 1008.0 988.2
03 24.06 СЗ 4 20 км 5/0
[Ac trans Ci fib]
+16.7 +13.6 82 +16 +16 прохладно 1008.7 988.9
06 24.06 СЗ 5 20 км 9/8 600 м
[Cb calv Ci fib]
+19.0 +14.9 77 +20 +21 по сезону 1010.3 990.6 +16.5 1
09 24.06 СЗ 3 20 км 9/8 600 м
[Cu med, cong Ci fib]
+22.0 +14.1 61 +25 +28 комфорт 1011.5 992.0
12 24.06 С 5 20 км 10/5 600 м
[Cu hum Ci fib]
+24.8 +13.4 49 +27 +30 жарко 1011.1 991.7
15 24.06 СЗ 4 20 км 10/6 600 м
[Cu hum Ci fib]
+24.7 +13.9 51 +27 +28 жарко 1011.4 992.0
18 24.06 З 2 20 км 10/0
[Ac trans Ci fib]
+22.1 +13.5 58 +25 +25 комфорт 1012.5 992.9 +26.6
21 24.06 СЗ 4 20 км 8/0
[Ac trans Ci fib]
+21.2 +12.6 58 +23 +23 комфорт 1013.9 994.2
00 25.06 СЗ 1 20 км 8/0
[Ac trans Ci fib]
+18.4 +12.6 69 +20 +20 тепло 1014.6 994.7
03 25.06 штиль 0 20 км 5/0
[Ac trans Ci fib]
+18.7 +12.5 67 +19 +20 по сезону 1014.9 995.1
06 25.06 Ю 1 20 км 1/0
[Ci fib]
+22.9 +13.9 57 +26 +35 жарко 1015.4 995.8 +16.8

 

Местоположение метеостанции Кишинев (Молдова): широта 47.02 долгота 28.98 высота над уровнем моря 173 м.

В архиве по умолчанию представлена погода в Кишиневе за последнюю неделю. Архивные данные за месяц целиком и за предыдущие месяцы, начиная с января 2011 года, Вы можете получить, выбрав интересующий диапазон дат из раскрывающегося списка и нажав кнопку "Ввод!".

Внимание! Время в таблицах - всемирное. Для получения местного времени необходимо прибавить поправку, которая в Кишиневе равна 2 ч.

Смотрите также архив погоды в соседних городах и на ближайших метеорологических станциях:

Погода в Дубоссарах (Молдова) (29 км)
Погода в Тирасполе (Молдова) (49 км)
Погода в Бравичах (Молдова) (57 км)
Погода в Штефан Водэ (Молдова) (67 км)
Погода в Корнестах (Молдова) (76 км)
Погода в Затишье (Одесская область, Украина) (76 км)
Погода в Леове (Молдова) (80 км)
Погода в Заставе (Одесская область, Украина) (81 км)
Погода в Рыбнице (Молдова) (83 км)
Погода в Комрате (Молдова) (84 км)

Пояснения к столбцам:

Ветер - указаны скорость ветра в м/с - средняя за 10 мин, порывы в срок и между сроками (в фигурных скобках) и направление, откуда дует ветер: С - северный, СВ - северо-восточный, В - восточный, ЮВ - юго-восточный, Ю - южный, ЮЗ - юго-западный, З - западный, СЗ - северо-западный.
Видимость - горизонтальная дальность видимости в метрах или километрах. При видимости от 1 до 10 км при отсутствии осадков обычно наблюдается дымка, при ухудшении видимости до 1 км и менее - туман. В сухую погоду видимость может ухудшаться дымом, пылью или мглою.
Явления - указаны атмосферные явления, наблюдавшиеся в срок или в последний час перед сроком; фигурными скобками обозначены явления, наблюдавшиеся между сроками (за 1-3 часа до срока); квадратными скобками обозначены град или гололедные отложения с указанием их диаметра в мм.
Облачность - указаны через наклонную черту общая и нижняя облачность в баллах и высота нижней границы облаков в метрах; квадратными скобками обозначены формы облаков: Ci - перистые, Cs - перисто-слоистые, Cc - перисто-кучевые, Ac - высококучевые, As - высокослоистые, Sc - слоисто-кучевые, Ns - слоисто-дождевые, Cu - кучевые, Cb - кучево-дождевые. Подробнее классификацию облаков см. в Атласе облаков (PDF).
T - Температура воздуха - температура, измеренная на высоте 2 м над землей.
Td - Температура точки росы - температура, при понижении до которой содержащийся в воздухе водяной пар достигнет насыщения.
f - Относительная влажность воздуха - влажноcть воздуха, измеренная на высоте 2 м над землей.
Te - Эффективная температура - температура, которую ощущает одетый по сезону человек в тени. Характеристика душности погоды. При расчете учитывается влияние влажности воздуха и скорости ветра на теплоощущения человека.
Tes - Эффективная температура на солнце - температура, которую ощущает человек, с поправкой на солнечный нагрев. Характеристика знойности погоды. Зависит от высоты солнца над горизонтом, облачности и скорости ветра. Ночью, в пасмурную погоду, а также при ветре 12 м/с и более поправка равна нулю.
P - Атмосферное давление - приведенное к уровню моря атмосферное давление.
Po - Атмосферное давление - измеренное на уровне метеостанции атмосферное давление.
Tmin - Минимальная температура - минимум температуры воздуха на высоте 2 м над землей.
Tmax - Максимальная температура - максимум температуры воздуха на высоте 2 м над землей.
R - Количество осадков - Количество выпавших осадков за период времени, мм. При наведении курсора мыши на число - период времени, за который выпало указанное количество осадков.
R24 - Количество осадков - Количество выпавших осадков за 24 часа, мм.
S - Снежный покров - Высота снежного покрова, см. При наведении курсора мыши на число - состояние снежного покрова и степень покрытия местности в баллах.